* Astronomy

Members Login
Username 
 
Password 
    Remember Me  
Post Info TOPIC: Asteroid 2009 HW2


L

Posts: 131433
Date:
Asteroid 2009 HW2
Permalink  
 


Orbital elements:
2009 HW2 Earth MOID = 0.0518 AU
Epoch 2009 June 18.0 TT = JDT 2455000.5 MPC
M 20.55057 (2000.0) P Q
n 0.30158971 Peri. 350.39130 -0.92676074 +0.37473005
a 2.2022082 Node 211.65653 -0.34124082 -0.86907654
e 0.5213074 Incl. 2.87287 -0.15706440 -0.32292935
P 3.27 H 23.9 G 0.15 U 8

MPEC 2009 - H24


__________________
Page 1 of 1  sorted by
 
Quick Reply

Please log in to post quick replies.



Create your own FREE Forum
Report Abuse
Powered by ActiveBoard